Time,TemperatureF,DewpointF,PressureIn,WindDirection,WindDirectionDegrees,WindSpeedMPH,WindSpeedGustMPH,Humidity,HourlyPrecipIn,Conditions,Clouds,dailyrainin,SoftwareType,DateUTC
2013-04-10 00:00:00,45.7,40.8,29.95,South,180,4.0,4.6,83,0.00,CLR,,0.01,WeatherDisplay:10.37,2013-04-10 04:00:00,
2013-04-10 00:01:00,45.7,41.1,29.95,ESE,112,2.4,4.6,84,0.00,RA,,0.00,WeatherDisplay:10.37,2013-04-10 04:01:00,
2013-04-10 00:06:00,45.7,41.1,29.94,SSE,158,1.4,3.5,84,0.00,RA,,0.00,WeatherDisplay:10.37,2013-04-10 04:06:00,
2013-04-10 00:12:00,45.7,40.8,29.94,SE,135,2.0,2.3,83,0.00,CLR,,0.00,WeatherDisplay:10.37,2013-04-10 04:12:00,
2013-04-10 00:17:00,45.7,40.8,29.94,SE,135,1.8,3.6,83,0.00,CLR,,0.00,WeatherDisplay:10.37,2013-04-10 04:17:00,
2013-04-10 00:22:00,45.7,40.8,29.93,SE,135,2.0,2.3,83,0.00,CLR,,0.00,WeatherDisplay:10.37,2013-04-10 04:22:00,
2013-04-10 00:27:00,45.7,40.8,29.93,SE,135,1.6,4.0,83,0.00,CLR,,0.00,WeatherDisplay:10.37,2013-04-10 04:27:00,
2013-04-10 00:32:00,45.7,40.8,29.94,SW,225,3.6,3.6,83,0.00,CLR,,0.00,WeatherDisplay:10.37,2013-04-10 04:32:00,
2013-04-10 00:37:00,45.7,40.8,29.94,SSW,202,3.3,4.6,83,0.00,CLR,,0.00,WeatherDisplay:10.37,2013-04-10 04:37:00,
2013-04-10 00:42:00,45.7,40.8,29.94,South,180,3.3,3.3,83,0.00,CLR,,0.00,WeatherDisplay:10.37,2013-04-10 04:42:00,
2013-04-10 00:47:00,45.5,40.6,29.93,North,0,1.6,1.6,83,0.00,CLR,,0.00,WeatherDisplay:10.37,2013-04-10 04:47:00,
2013-04-10 00:52:00,45.5,40.6,29.93,South,180,3.8,3.8,83,0.00,CLR,,0.00,WeatherDisplay:10.37,2013-04-10 04:52:00,
2013-04-10 00:57:00,45.5,40.6,29.93,SE,135,3.1,3.1,83,0.00,CLR,,0.00,WeatherDisplay:10.37,2013-04-10 04:57:00,
2013-04-10 01:02:00,45.3,40.5,29.92,SE,135,1.6,3.5,83,0.00,CLR,,0.00,WeatherDisplay:10.37,2013-04-10 05:02:00,
2013-04-10 01:07:00,45.1,40.3,29.92,ESE,112,2.2,2.2,83,0.00,CLR,,0.00,WeatherDisplay:10.37,2013-04-10 05:07:00,
2013-04-10 01:12:00,45.1,40.3,29.91,SSW,202,4.3,4.3,83,0.00,CLR,,0.00,WeatherDisplay:10.37,2013-04-10 05:12:00,
2013-04-10 01:17:00,45.0,40.4,29.91,South,180,1.6,1.6,84,0.00,CLR,,0.00,WeatherDisplay:10.37,2013-04-10 05:17:00,
2013-04-10 01:22:00,45.0,40.1,29.91,South,180,1.8,2.3,83,0.00,CLR,,0.00,WeatherDisplay:10.37,2013-04-10 05:22:00,
2013-04-10 01:27:00,45.0,40.4,29.91,SSW,202,3.3,5.8,84,0.00,CLR,,0.00,WeatherDisplay:10.37,2013-04-10 05:27:00,
2013-04-10 01:32:00,44.8,40.5,29.90,SSW,202,2.4,2.4,85,0.00,CLR,,0.00,WeatherDisplay:10.37,2013-04-10 05:32:00,
2013-04-10 01:38:00,45.0,40.7,29.89,SSE,158,2.4,6.2,85,0.00,CLR,,0.00,WeatherDisplay:10.37,2013-04-10 05:38:00,
2013-04-10 01:43:00,45.0,40.7,29.89,SSE,158,5.4,5.4,85,0.00,CLR,,0.00,WeatherDisplay:10.37,2013-04-10 05:43:00,
2013-04-10 01:48:00,45.0,40.7,29.88,South,180,2.4,4.6,85,0.00,CLR,,0.00,WeatherDisplay:10.37,2013-04-10 05:48:00,
2013-04-10 01:53:00,45.1,40.9,29.89,South,180,1.8,3.5,85,0.00,CLR,,0.00,WeatherDisplay:10.37,2013-04-10 05:53:00,
2013-04-10 01:58:00,45.1,40.9,29.88,SE,135,6.4,6.4,85,0.00,CLR,,0.00,WeatherDisplay:10.37,2013-04-10 05:58:00,
2013-04-10 02:03:00,45.1,40.9,29.88,ESE,112,4.5,4.5,85,0.00,CLR,,0.00,WeatherDisplay:10.37,2013-04-10 06:03:00,
2013-04-10 02:08:00,45.0,40.7,29.87,SSE,158,3.3,3.5,85,0.00,CLR,,0.00,WeatherDisplay:10.37,2013-04-10 06:08:00,
2013-04-10 02:13:00,45.0,40.7,29.88,SSE,158,4.3,4.6,85,0.00,CLR,,0.00,WeatherDisplay:10.37,2013-04-10 06:13:00,
2013-04-10 02:18:00,45.1,40.9,29.88,SSE,158,1.8,2.3,85,0.00,CLR,,0.00,WeatherDisplay:10.37,2013-04-10 06:18:00,
2013-04-10 02:23:00,45.1,40.9,29.87,SE,135,3.3,3.3,85,0.00,CLR,,0.00,WeatherDisplay:10.37,2013-04-10 06:23:00,
2013-04-10 02:28:00,45.3,41.1,29.87,SSE,158,2.9,4.6,85,0.00,CLR,,0.00,WeatherDisplay:10.37,2013-04-10 06:28:00,
2013-04-10 02:33:00,45.5,41.3,29.88,South,180,2.0,4.6,85,0.00,CLR,,0.00,WeatherDisplay:10.37,2013-04-10 06:33:00,
2013-04-10 02:38:00,45.5,41.3,29.89,SSE,158,1.1,1.1,85,0.00,CLR,,0.00,WeatherDisplay:10.37,2013-04-10 06:38:00,
2013-04-10 02:43:00,45.7,41.1,29.88,SSE,158,2.2,2.2,84,0.00,CLR,,0.00,WeatherDisplay:10.37,2013-04-10 06:43:00,
2013-04-10 02:48:00,45.7,41.1,29.89,South,180,3.3,3.3,84,0.00,CLR,,0.00,WeatherDisplay:10.37,2013-04-10 06:48:00,
2013-04-10 02:53:00,45.7,41.1,29.89,SSE,158,0.2,1.1,84,0.00,CLR,,0.00,WeatherDisplay:10.37,2013-04-10 06:53:00,
2013-04-10 02:58:00,45.9,41.3,29.89,South,180,0.5,1.1,84,0.00,CLR,,0.00,WeatherDisplay:10.37,2013-04-10 06:58:00,
2013-04-10 03:03:00,45.9,41.3,29.89,SSE,158,2.4,2.4,84,0.00,CLR,,0.00,WeatherDisplay:10.37,2013-04-10 07:03:00,
2013-04-10 03:08:00,46.0,41.5,29.88,East,90,2.0,2.3,84,0.00,CLR,,0.00,WeatherDisplay:10.37,2013-04-10 07:08:00,
2013-04-10 03:13:00,46.0,41.2,29.88,ESE,112,1.1,2.3,83,0.00,CLR,,0.00,WeatherDisplay:10.37,2013-04-10 07:13:00,
2013-04-10 03:18:00,46.0,41.2,29.87,East,90,1.1,2.3,83,0.00,CLR,,0.00,WeatherDisplay:10.37,2013-04-10 07:18:00,
2013-04-10 03:23:00,46.2,41.3,29.86,East,90,1.1,4.6,83,0.00,CLR,,0.00,WeatherDisplay:10.37,2013-04-10 07:23:00,
2013-04-10 03:28:00,46.2,41.7,29.86,SE,135,0.5,2.3,84,0.00,CLR,,0.00,WeatherDisplay:10.37,2013-04-10 07:28:00,
2013-04-10 03:33:00,46.2,41.3,29.87,ENE,68,2.2,2.3,83,0.00,CLR,,0.00,WeatherDisplay:10.37,2013-04-10 07:33:00,
2013-04-10 03:38:00,46.2,41.3,29.87,NNE,22,0.5,1.1,83,0.00,CLR,,0.00,WeatherDisplay:10.37,2013-04-10 07:38:00,
2013-04-10 03:43:00,46.2,41.3,29.87,NNE,22,2.4,3.1,83,0.00,CLR,,0.00,WeatherDisplay:10.37,2013-04-10 07:43:00,
2013-04-10 03:48:00,46.2,41.3,29.89,NNE,22,1.8,1.8,83,0.00,CLR,,0.00,WeatherDisplay:10.37,2013-04-10 07:48:00,
2013-04-10 03:53:00,46.4,41.5,29.89,North,0,0.7,3.5,83,0.00,CLR,,0.00,WeatherDisplay:10.37,2013-04-10 07:53:00,
2013-04-10 03:58:00,46.4,41.2,29.90,WNW,292,1.1,1.1,82,0.00,CLR,,0.00,WeatherDisplay:10.37,2013-04-10 07:58:00,
2013-04-10 04:03:00,46.4,41.2,29.90,North,0,0.9,3.5,82,0.00,CLR,,0.00,WeatherDisplay:10.37,2013-04-10 08:03:00,
2013-04-10 04:08:00,46.6,41.4,29.91,North,0,1.4,3.5,82,0.00,CLR,,0.00,WeatherDisplay:10.37,2013-04-10 08:08:00,
2013-04-10 04:13:00,46.6,41.4,29.93,NW,315,6.2,6.9,82,0.00,CLR,,0.00,WeatherDisplay:10.37,2013-04-10 08:13:00,
2013-04-10 04:18:00,46.8,41.6,29.94,NNW,338,1.8,2.3,82,0.00,CLR,,0.00,WeatherDisplay:10.37,2013-04-10 08:18:00,
2013-04-10 04:23:00,46.6,41.4,29.93,East,90,1.1,4.6,82,0.00,CLR,,0.00,WeatherDisplay:10.37,2013-04-10 08:23:00,
2013-04-10 04:28:00,46.6,41.7,29.94,North,0,0.5,6.9,83,0.00,CLR,,0.00,WeatherDisplay:10.37,2013-04-10 08:28:00,
2013-04-10 04:33:00,46.2,41.3,29.93,NNW,338,1.4,3.5,83,0.01,RA,,0.01,WeatherDisplay:10.37,2013-04-10 08:33:00,
2013-04-10 04:38:00,45.9,41.6,29.95,North,0,0.9,4.6,85,0.01,RA,,0.01,WeatherDisplay:10.37,2013-04-10 08:38:00,
2013-04-10 04:43:00,45.9,41.6,29.94,NE,45,1.4,2.6,85,0.01,,,0.01,WeatherDisplay:10.37,2013-04-10 08:43:00,
2013-04-10 04:48:00,45.7,41.4,29.93,ENE,68,0.5,2.3,85,0.02,RA,,0.02,WeatherDisplay:10.37,2013-04-10 08:48:00,
2013-04-10 04:53:00,45.7,41.4,29.94,NE,45,0.5,1.1,85,0.03,RA,,0.04,WeatherDisplay:10.37,2013-04-10 08:53:00,
2013-04-10 04:58:00,45.7,41.4,29.94,North,0,0.0,0.0,85,0.06,RA,,0.06,WeatherDisplay:10.37,2013-04-10 08:58:00,
2013-04-10 05:03:00,45.5,41.3,29.93,ENE,68,3.1,3.1,85,0.08,RA,,0.09,WeatherDisplay:10.37,2013-04-10 09:03:00,
2013-04-10 05:08:00,45.5,41.3,29.92,ESE,112,1.4,2.3,85,0.10,RA,,0.10,WeatherDisplay:10.37,2013-04-10 09:08:00,
2013-04-10 05:13:00,45.3,41.1,29.90,SSE,158,1.1,2.3,85,0.11,RA,,0.11,WeatherDisplay:10.37,2013-04-10 09:13:00,
2013-04-10 05:18:00,45.3,41.4,29.88,ESE,112,1.8,2.3,86,0.12,RA,,0.12,WeatherDisplay:10.37,2013-04-10 09:18:00,
2013-04-10 05:23:00,45.1,41.5,29.88,ESE,112,2.9,4.6,87,0.13,RA,,0.13,WeatherDisplay:10.37,2013-04-10 09:23:00,
2013-04-10 05:28:00,45.1,41.5,29.87,SSW,202,1.8,2.3,87,0.13,RA,,0.13,WeatherDisplay:10.37,2013-04-10 09:28:00,
2013-04-10 05:33:00,45.1,41.8,29.87,ESE,112,4.7,4.7,88,0.12,CLR,,0.13,WeatherDisplay:10.37,2013-04-10 09:33:00,
2013-04-10 05:38:00,45.0,41.6,29.86,South,180,1.8,4.6,88,0.12,CLR,,0.13,WeatherDisplay:10.37,2013-04-10 09:38:00,
2013-04-10 05:43:00,45.0,41.6,29.85,ESE,112,6.2,6.2,88,0.12,CLR,,0.13,WeatherDisplay:10.37,2013-04-10 09:43:00,
2013-04-10 05:48:00,45.0,41.9,29.83,SW,225,1.6,9.2,89,0.11,CLR,,0.13,WeatherDisplay:10.37,2013-04-10 09:48:00,
2013-04-10 05:53:00,45.0,41.9,29.83,ESE,112,6.0,6.9,89,0.10,CLR,,0.13,WeatherDisplay:10.37,2013-04-10 09:53:00,
2013-04-10 05:58:00,45.0,42.2,29.82,East,90,1.6,4.6,90,0.07,CLR,,0.13,WeatherDisplay:10.37,2013-04-10 09:58:00,
2013-04-10 06:03:00,45.0,42.2,29.81,East,90,3.6,5.8,90,0.05,CLR,,0.13,WeatherDisplay:10.37,2013-04-10 10:03:00,
2013-04-10 06:08:00,45.0,42.2,29.81,NE,45,2.4,8.1,90,0.03,CLR,,0.13,WeatherDisplay:10.37,2013-04-10 10:08:00,
2013-04-10 06:13:00,45.0,42.2,29.81,ESE,112,7.1,7.1,90,0.02,CLR,,0.13,WeatherDisplay:10.37,2013-04-10 10:13:00,
2013-04-10 06:18:00,45.0,42.2,29.81,East,90,2.2,4.6,90,0.01,CLR,,0.13,WeatherDisplay:10.37,2013-04-10 10:18:00,
2013-04-10 06:23:00,45.0,42.2,29.81,North,0,2.9,6.9,90,0.00,CLR,,0.13,WeatherDisplay:10.37,2013-04-10 10:23:00,
2013-04-10 06:28:00,45.1,42.1,29.82,East,90,5.9,5.9,89,0.00,CLR,,0.13,WeatherDisplay:10.37,2013-04-10 10:28:00,
2013-04-10 06:33:00,45.1,42.1,29.82,NNE,22,3.3,9.2,89,0.00,CLR,,0.13,WeatherDisplay:10.37,2013-04-10 10:33:00,
2013-04-10 06:38:00,45.3,42.3,29.82,East,90,8.3,8.3,89,0.00,CLR,,0.13,WeatherDisplay:10.37,2013-04-10 10:38:00,
2013-04-10 06:43:00,45.5,42.2,29.82,East,90,2.0,3.5,88,0.00,CLR,,0.13,WeatherDisplay:10.37,2013-04-10 10:43:00,
2013-04-10 06:48:00,45.5,42.2,29.83,SSE,158,2.0,4.6,88,0.00,CLR,,0.13,WeatherDisplay:10.37,2013-04-10 10:48:00,
2013-04-10 06:53:00,45.7,42.3,29.83,South,180,1.1,5.8,88,0.00,CLR,,0.13,WeatherDisplay:10.37,2013-04-10 10:53:00,
2013-04-10 06:58:00,45.7,42.3,29.83,ESE,112,4.5,4.6,88,0.00,CLR,,0.13,WeatherDisplay:10.37,2013-04-10 10:58:00,
2013-04-10 07:03:00,45.7,42.3,29.84,East,90,0.2,2.3,88,0.00,CLR,,0.13,WeatherDisplay:10.37,2013-04-10 11:03:00,
2013-04-10 07:08:00,45.9,42.5,29.85,NNE,22,0.9,2.3,88,0.00,CLR,,0.13,WeatherDisplay:10.37,2013-04-10 11:08:00,
2013-04-10 07:13:00,46.2,42.9,29.85,NNE,22,0.5,2.3,88,0.00,CLR,,0.13,WeatherDisplay:10.37,2013-04-10 11:13:00,
2013-04-10 07:18:00,46.6,43.2,29.83,East,90,3.1,4.6,88,0.00,CLR,,0.13,WeatherDisplay:10.37,2013-04-10 11:18:00,
2013-04-10 07:23:00,46.8,43.4,29.85,ENE,68,1.4,3.5,88,0.00,CLR,,0.13,WeatherDisplay:10.37,2013-04-10 11:23:00,
2013-04-10 07:28:00,46.9,43.3,29.86,ENE,68,0.7,1.1,87,0.00,CLR,,0.13,WeatherDisplay:10.37,2013-04-10 11:28:00,
2013-04-10 07:33:00,47.3,43.6,29.87,NNE,22,1.6,2.3,87,0.00,CLR,,0.13,WeatherDisplay:10.37,2013-04-10 11:33:00,
2013-04-10 07:38:00,47.5,43.8,29.87,NNE,22,1.8,2.3,87,0.00,CLR,,0.13,WeatherDisplay:10.37,2013-04-10 11:38:00,
2013-04-10 07:43:00,47.8,44.2,29.87,ENE,68,2.9,2.9,87,0.00,CLR,,0.13,WeatherDisplay:10.37,2013-04-10 11:43:00,
2013-04-10 07:48:00,48.2,44.2,29.86,NNE,22,4.0,4.0,86,0.00,CLR,,0.13,WeatherDisplay:10.37,2013-04-10 11:48:00,
2013-04-10 07:53:00,48.6,44.6,29.85,East,90,1.8,2.3,86,0.00,CLR,,0.13,WeatherDisplay:10.37,2013-04-10 11:53:00,
2013-04-10 07:58:00,48.9,44.9,29.86,ENE,68,1.8,1.8,86,0.00,CLR,,0.13,WeatherDisplay:10.37,2013-04-10 11:58:00,
2013-04-10 08:03:00,49.3,45.0,29.86,ENE,68,2.6,3.5,85,0.00,CLR,,0.13,WeatherDisplay:10.37,2013-04-10 12:03:00,
2013-04-10 08:08:00,49.5,44.8,29.86,East,90,2.6,2.6,84,0.00,CLR,,0.13,WeatherDisplay:10.37,2013-04-10 12:08:00,
2013-04-10 08:13:00,49.6,45.3,29.86,NE,45,3.1,3.1,85,0.00,CLR,,0.13,WeatherDisplay:10.37,2013-04-10 12:13:00,
2013-04-10 08:18:00,49.8,45.2,29.86,NE,45,1.4,4.6,84,0.00,CLR,,0.13,WeatherDisplay:10.37,2013-04-10 12:18:00,
2013-04-10 08:23:00,50.0,45.4,29.86,ENE,68,2.4,3.5,84,0.00,CLR,,0.13,WeatherDisplay:10.37,2013-04-10 12:23:00,
2013-04-10 08:28:00,50.2,45.5,29.86,NE,45,2.2,2.3,84,0.00,CLR,,0.13,WeatherDisplay:10.37,2013-04-10 12:28:00,
2013-04-10 08:33:00,50.7,45.7,29.87,North,0,1.1,2.3,83,0.00,CLR,,0.13,WeatherDisplay:10.37,2013-04-10 12:33:00,
2013-04-10 08:38:00,51.3,46.0,29.87,NNE,22,1.6,3.5,82,0.00,CLR,,0.13,WeatherDisplay:10.37,2013-04-10 12:38:00,
2013-04-10 08:43:00,51.6,46.3,29.87,ENE,68,1.8,3.5,82,0.00,CLR,,0.13,WeatherDisplay:10.37,2013-04-10 12:43:00,
2013-04-10 08:48:00,52.2,46.2,29.87,NE,45,2.4,4.6,80,0.00,CLR,,0.13,WeatherDisplay:10.37,2013-04-10 12:48:00,
2013-04-10 08:53:00,52.3,46.4,29.87,East,90,4.9,4.9,80,0.00,CLR,,0.13,WeatherDisplay:10.37,2013-04-10 12:53:00,
2013-04-10 08:58:00,52.7,46.7,29.87,ENE,68,1.6,1.6,80,0.00,CLR,,0.13,WeatherDisplay:10.37,2013-04-10 12:58:00,
2013-04-10 09:03:00,53.1,46.7,29.87,ENE,68,4.7,4.7,79,0.00,CLR,,0.13,WeatherDisplay:10.37,2013-04-10 13:03:00,
2013-04-10 09:08:00,53.4,46.4,29.86,North,0,1.1,2.3,77,0.00,CLR,,0.13,WeatherDisplay:10.37,2013-04-10 13:08:00,
2013-04-10 09:13:00,53.6,46.9,29.86,NNW,338,1.8,2.3,78,0.00,CLR,,0.13,WeatherDisplay:10.37,2013-04-10 13:13:00,
2013-04-10 09:18:00,54.0,46.9,29.86,ENE,68,5.4,5.4,77,0.00,CLR,,0.13,WeatherDisplay:10.37,2013-04-10 13:18:00,
2013-04-10 09:23:00,54.1,46.7,29.87,NNE,22,3.3,4.6,76,0.00,CLR,,0.13,WeatherDisplay:10.37,2013-04-10 13:23:00,
2013-04-10 09:28:00,54.3,46.9,29.87,ENE,68,3.3,3.5,76,0.00,CLR,,0.13,WeatherDisplay:10.37,2013-04-10 13:28:00,
2013-04-10 09:33:00,54.5,47.4,29.87,ESE,112,0.7,1.1,77,0.00,CLR,,0.13,WeatherDisplay:10.37,2013-04-10 13:33:00,
2013-04-10 09:38:00,54.7,47.3,29.87,NNE,22,1.8,2.3,76,0.00,CLR,,0.13,WeatherDisplay:10.37,2013-04-10 13:38:00,
2013-04-10 09:43:00,54.7,47.3,29.87,ESE,112,1.4,1.4,76,0.00,CLR,,0.13,WeatherDisplay:10.37,2013-04-10 13:43:00,
2013-04-10 09:48:00,54.9,47.4,29.87,North,0,1.6,1.6,76,0.00,CLR,,0.13,WeatherDisplay:10.37,2013-04-10 13:48:00,
2013-04-10 09:53:00,55.0,47.6,29.87,ENE,68,1.1,1.1,76,0.00,CLR,,0.13,WeatherDisplay:10.37,2013-04-10 13:53:00,
2013-04-10 09:58:00,55.2,47.4,29.87,NNE,22,3.6,3.6,75,0.00,CLR,,0.13,WeatherDisplay:10.37,2013-04-10 13:58:00,
2013-04-10 10:03:00,55.0,46.9,29.87,North,0,2.9,2.9,74,0.00,CLR,,0.13,WeatherDisplay:10.37,2013-04-10 14:03:00,
2013-04-10 10:08:00,55.2,47.4,29.87,NE,45,2.4,2.4,75,0.00,CLR,,0.13,WeatherDisplay:10.37,2013-04-10 14:08:00,
2013-04-10 10:13:00,55.4,47.6,29.87,NNW,338,1.1,2.3,75,0.00,CLR,,0.13,WeatherDisplay:10.37,2013-04-10 14:13:00,
2013-04-10 10:18:00,55.2,47.1,29.87,North,0,2.9,4.6,74,0.00,CLR,,0.13,WeatherDisplay:10.37,2013-04-10 14:18:00,
2013-04-10 10:23:00,55.0,46.9,29.87,SSW,202,1.6,1.6,74,0.00,CLR,,0.13,WeatherDisplay:10.37,2013-04-10 14:23:00,
2013-04-10 10:28:00,55.4,46.9,29.87,NNE,22,2.2,3.6,73,0.00,CLR,,0.13,WeatherDisplay:10.37,2013-04-10 14:28:00,
2013-04-10 10:33:00,55.4,46.9,29.87,NW,315,2.4,5.8,73,0.00,CLR,,0.13,WeatherDisplay:10.37,2013-04-10 14:33:00,
2013-04-10 10:38:00,55.8,47.6,29.87,ENE,68,2.0,4.6,74,0.00,CLR,,0.13,WeatherDisplay:10.37,2013-04-10 14:38:00,
2013-04-10 10:43:00,56.5,47.9,29.87,NNW,338,3.8,3.8,73,0.00,CLR,,0.13,WeatherDisplay:10.37,2013-04-10 14:43:00,
2013-04-10 10:48:00,57.0,48.4,29.88,WNW,292,4.9,4.9,73,0.00,CLR,,0.13,WeatherDisplay:10.37,2013-04-10 14:48:00,
2013-04-10 10:53:00,57.2,47.5,29.88,North,0,5.4,5.8,70,0.00,CLR,,0.13,WeatherDisplay:10.37,2013-04-10 14:53:00,
2013-04-10 10:58:00,56.8,47.5,29.88,ENE,68,2.4,3.5,71,0.00,CLR,,0.13,WeatherDisplay:10.37,2013-04-10 14:58:00,
2013-04-10 11:03:00,57.0,47.7,29.88,NE,45,2.6,2.6,71,0.00,CLR,,0.13,WeatherDisplay:10.37,2013-04-10 15:03:00,
2013-04-10 11:08:00,57.4,47.7,29.88,NNW,338,2.4,2.4,70,0.00,CLR,,0.13,WeatherDisplay:10.37,2013-04-10 15:08:00,
2013-04-10 11:13:00,57.4,47.7,29.87,NE,45,4.5,4.6,70,0.00,CLR,,0.13,WeatherDisplay:10.37,2013-04-10 15:13:00,
2013-04-10 11:18:00,57.9,47.8,29.87,East,90,6.0,6.0,69,0.00,CLR,,0.13,WeatherDisplay:10.37,2013-04-10 15:18:00,
2013-04-10 11:23:00,58.3,47.8,29.87,ENE,68,1.8,4.6,68,0.00,CLR,,0.13,WeatherDisplay:10.37,2013-04-10 15:23:00,
2013-04-10 11:28:00,58.3,47.8,29.87,NNE,22,2.9,2.9,68,0.00,CLR,,0.13,WeatherDisplay:10.37,2013-04-10 15:28:00,
2013-04-10 11:33:00,58.6,48.1,29.88,ENE,68,1.6,2.3,68,0.00,CLR,,0.13,WeatherDisplay:10.37,2013-04-10 15:33:00,
2013-04-10 11:38:00,58.6,48.1,29.88,NW,315,2.0,5.8,68,0.00,CLR,,0.13,WeatherDisplay:10.37,2013-04-10 15:38:00,
2013-04-10 11:43:00,59.4,48.0,29.88,NNE,22,3.3,3.5,66,0.00,CLR,,0.13,WeatherDisplay:10.37,2013-04-10 15:43:00,
2013-04-10 11:48:00,59.9,48.5,29.89,NNE,22,4.9,10.4,66,0.00,CLR,,0.13,WeatherDisplay:10.37,2013-04-10 15:48:00,
2013-04-10 11:53:00,59.0,47.7,29.89,NNW,338,4.7,4.7,66,0.00,CLR,,0.13,WeatherDisplay:10.37,2013-04-10 15:53:00,
2013-04-10 11:58:00,58.3,46.6,29.89,East,90,2.9,8.1,65,0.00,CLR,,0.13,WeatherDisplay:10.37,2013-04-10 15:58:00,
2013-04-10 12:03:00,58.1,47.2,29.90,North,0,4.3,4.6,67,0.00,CLR,,0.13,WeatherDisplay:10.37,2013-04-10 16:03:00,
2013-04-10 12:08:00,58.5,47.1,29.90,North,0,3.8,4.6,66,0.00,CLR,,0.13,WeatherDisplay:10.37,2013-04-10 16:08:00,
2013-04-10 12:13:00,58.3,47.0,29.90,NW,315,5.2,5.2,66,0.00,CLR,,0.13,WeatherDisplay:10.37,2013-04-10 16:13:00,
2013-04-10 12:18:00,57.7,46.9,29.90,ESE,112,4.0,9.2,67,0.00,CLR,,0.13,WeatherDisplay:10.37,2013-04-10 16:18:00,
2013-04-10 12:23:00,57.2,45.5,29.91,NNW,338,6.4,6.9,65,0.00,CLR,,0.13,WeatherDisplay:10.37,2013-04-10 16:23:00,
2013-04-10 12:28:00,56.7,45.8,29.91,NNE,22,4.5,5.8,67,0.00,CLR,,0.13,WeatherDisplay:10.37,2013-04-10 16:28:00,
2013-04-10 12:33:00,56.3,45.5,29.91,NE,45,2.9,3.5,67,0.00,CLR,,0.13,WeatherDisplay:10.37,2013-04-10 16:33:00,
2013-04-10 12:38:00,56.3,46.3,29.91,NNE,22,4.9,9.2,69,0.00,CLR,,0.13,WeatherDisplay:10.37,2013-04-10 16:38:00,
2013-04-10 12:43:00,56.5,46.4,29.91,East,90,5.4,8.1,69,0.00,CLR,,0.13,WeatherDisplay:10.37,2013-04-10 16:43:00,
2013-04-10 12:48:00,56.7,45.8,29.91,WSW,248,4.9,4.9,67,0.00,CLR,,0.13,WeatherDisplay:10.37,2013-04-10 16:48:00,
2013-04-10 12:53:00,56.5,46.4,29.90,North,0,4.3,5.8,69,0.00,CLR,,0.13,WeatherDisplay:10.37,2013-04-10 16:53:00,
2013-04-10 12:58:00,56.7,46.2,29.90,NE,45,5.4,6.9,68,0.00,CLR,,0.13,WeatherDisplay:10.37,2013-04-10 16:58:00,
2013-04-10 13:03:00,56.5,46.0,29.90,North,0,3.6,4.6,68,0.00,CLR,,0.13,WeatherDisplay:10.37,2013-04-10 17:03:00,
2013-04-10 13:08:00,56.7,45.8,29.91,North,0,3.8,9.2,67,0.00,CLR,,0.13,WeatherDisplay:10.37,2013-04-10 17:08:00,
2013-04-10 13:13:00,56.5,45.7,29.91,North,0,3.3,6.9,67,0.00,CLR,,0.13,WeatherDisplay:10.37,2013-04-10 17:13:00,
2013-04-10 13:18:00,56.1,45.7,29.91,ENE,68,4.3,5.8,68,0.00,CLR,,0.13,WeatherDisplay:10.37,2013-04-10 17:18:00,
2013-04-10 13:23:00,56.5,46.4,29.90,NNE,22,3.8,6.9,69,0.00,CLR,,0.13,WeatherDisplay:10.37,2013-04-10 17:23:00,
2013-04-10 13:28:00,56.3,45.5,29.91,NNW,338,5.9,8.1,67,0.00,CLR,,0.13,WeatherDisplay:10.37,2013-04-10 17:28:00,
2013-04-10 13:33:00,56.1,45.7,29.92,NE,45,4.0,4.6,68,0.00,CLR,,0.13,WeatherDisplay:10.37,2013-04-10 17:33:00,
2013-04-10 13:38:00,56.1,46.1,29.92,SSE,158,4.3,5.8,69,0.00,CLR,,0.13,WeatherDisplay:10.37,2013-04-10 17:38:00,
2013-04-10 13:43:00,56.8,46.4,29.91,NNW,338,8.1,8.1,68,0.00,CLR,,0.13,WeatherDisplay:10.37,2013-04-10 17:43:00,
2013-04-10 13:48:00,56.8,46.0,29.91,North,0,4.0,6.9,67,0.00,CLR,,0.13,WeatherDisplay:10.37,2013-04-10 17:48:00,
2013-04-10 13:53:00,56.7,45.8,29.91,NE,45,9.4,9.4,67,0.00,CLR,,0.13,WeatherDisplay:10.37,2013-04-10 17:53:00,
2013-04-10 13:58:00,56.8,46.0,29.91,NE,45,4.0,6.9,67,0.00,CLR,,0.13,WeatherDisplay:10.37,2013-04-10 17:58:00,
2013-04-10 14:03:00,56.7,45.8,29.91,North,0,6.9,6.9,67,0.00,CLR,,0.13,WeatherDisplay:10.37,2013-04-10 18:03:00,
2013-04-10 14:08:00,56.1,45.7,29.90,NNE,22,4.3,9.2,68,0.00,CLR,,0.13,WeatherDisplay:10.37,2013-04-10 18:08:00,
2013-04-10 14:13:00,56.3,45.5,29.91,WNW,292,3.1,6.9,67,0.00,CLR,,0.13,WeatherDisplay:10.37,2013-04-10 18:13:00,
2013-04-10 14:18:00,56.1,45.7,29.90,NNW,338,2.9,2.9,68,0.00,CLR,,0.13,WeatherDisplay:10.37,2013-04-10 18:18:00,
2013-04-10 14:23:00,56.5,45.7,29.90,NNE,22,5.4,5.8,67,0.00,CLR,,0.13,WeatherDisplay:10.37,2013-04-10 18:23:00,
2013-04-10 14:28:00,57.0,45.8,29.90,NNW,338,4.5,5.8,66,0.00,CLR,,0.13,WeatherDisplay:10.37,2013-04-10 18:28:00,
2013-04-10 14:33:00,57.4,46.1,29.90,NNE,22,4.0,4.0,66,0.00,CLR,,0.13,WeatherDisplay:10.37,2013-04-10 18:33:00,
2013-04-10 14:38:00,57.4,46.1,29.90,NE,45,5.9,5.9,66,0.00,CLR,,0.13,WeatherDisplay:10.37,2013-04-10 18:38:00,
2013-04-10 14:44:00,57.6,46.3,29.90,NE,45,6.4,6.4,66,0.00,CLR,,0.13,WeatherDisplay:10.37,2013-04-10 18:44:00,
2013-04-10 14:48:00,57.4,45.3,29.90,NNW,338,4.9,4.9,64,0.00,CLR,,0.13,WeatherDisplay:10.37,2013-04-10 18:48:00,
2013-04-10 14:53:00,57.0,45.4,29.90,NNW,338,2.4,2.4,65,0.00,CLR,,0.13,WeatherDisplay:10.37,2013-04-10 18:53:00,
2013-04-10 14:58:00,57.2,46.3,29.90,WNW,292,4.0,4.0,67,0.00,CLR,,0.13,WeatherDisplay:10.37,2013-04-10 18:58:00,
2013-04-10 15:03:00,57.7,46.5,29.90,East,90,2.4,3.5,66,0.00,CLR,,0.13,WeatherDisplay:10.37,2013-04-10 19:03:00,
2013-04-10 15:08:00,58.3,46.6,29.89,NE,45,1.8,3.5,65,0.00,CLR,,0.13,WeatherDisplay:10.37,2013-04-10 19:08:00,
2013-04-10 15:13:00,58.5,46.3,29.89,North,0,1.4,1.4,64,0.00,CLR,,0.13,WeatherDisplay:10.37,2013-04-10 19:13:00,
2013-04-10 15:18:00,58.6,46.1,29.89,North,0,1.8,3.5,63,0.00,CLR,,0.13,WeatherDisplay:10.37,2013-04-10 19:18:00,
2013-04-10 15:23:00,58.5,46.3,29.88,East,90,1.4,2.3,64,0.00,CLR,,0.13,WeatherDisplay:10.37,2013-04-10 19:23:00,
2013-04-10 15:29:00,59.2,47.0,29.88,West,270,1.1,2.3,64,0.00,CLR,,0.13,WeatherDisplay:10.37,2013-04-10 19:29:00,
2013-04-10 15:33:00,59.5,47.3,29.87,SE,135,1.1,2.3,64,0.00,CLR,,0.13,WeatherDisplay:10.37,2013-04-10 19:33:00,
2013-04-10 15:39:00,59.9,47.3,29.87,ESE,112,4.3,4.6,63,0.00,CLR,,0.13,WeatherDisplay:10.37,2013-04-10 19:39:00,
2013-04-10 15:44:00,60.3,47.6,29.86,East,90,0.7,3.5,63,0.00,CLR,,0.13,WeatherDisplay:10.37,2013-04-10 19:44:00,
2013-04-10 15:49:00,60.4,47.4,29.86,NE,45,3.3,5.8,62,0.00,CLR,,0.13,WeatherDisplay:10.37,2013-04-10 19:49:00,
2013-04-10 15:54:00,60.3,47.6,29.87,SSE,158,2.0,2.3,63,0.00,CLR,,0.13,WeatherDisplay:10.37,2013-04-10 19:54:00,
2013-04-10 15:59:00,60.3,48.0,29.86,ESE,112,2.0,2.3,64,0.00,CLR,,0.13,WeatherDisplay:10.37,2013-04-10 19:59:00,
2013-04-10 16:04:00,60.3,48.0,29.86,ESE,112,4.7,4.7,64,0.00,CLR,,0.13,WeatherDisplay:10.37,2013-04-10 20:04:00,
2013-04-10 16:09:00,59.9,47.3,29.86,SW,225,0.7,3.5,63,0.00,CLR,,0.13,WeatherDisplay:10.37,2013-04-10 20:09:00,
2013-04-10 16:14:00,59.7,47.9,29.86,ESE,112,2.0,4.6,65,0.00,CLR,,0.13,WeatherDisplay:10.37,2013-04-10 20:14:00,
2013-04-10 16:19:00,59.5,46.9,29.86,ESE,112,2.9,5.8,63,0.00,CLR,,0.13,WeatherDisplay:10.37,2013-04-10 20:19:00,
2013-04-10 16:24:00,58.6,46.9,29.85,SSE,158,5.2,5.2,65,0.00,CLR,,0.13,WeatherDisplay:10.37,2013-04-10 20:24:00,
2013-04-10 16:29:00,57.9,46.6,29.85,SE,135,3.3,3.5,66,0.00,CLR,,0.13,WeatherDisplay:10.37,2013-04-10 20:29:00,
2013-04-10 16:34:00,57.2,46.3,29.85,East,90,1.1,4.6,67,0.00,CLR,,0.13,WeatherDisplay:10.37,2013-04-10 20:34:00,
2013-04-10 16:39:00,56.7,45.8,29.85,SSE,158,9.2,9.2,67,0.00,CLR,,0.13,WeatherDisplay:10.37,2013-04-10 20:39:00,
2013-04-10 16:44:00,55.8,45.4,29.84,SE,135,3.3,3.3,68,0.00,CLR,,0.13,WeatherDisplay:10.37,2013-04-10 20:44:00,
2013-04-10 16:49:00,54.9,44.9,29.84,SSE,158,2.4,8.1,69,0.00,CLR,,0.13,WeatherDisplay:10.37,2013-04-10 20:49:00,
2013-04-10 16:54:00,54.3,44.7,29.85,SSE,158,2.6,8.1,70,0.00,CLR,,0.13,WeatherDisplay:10.37,2013-04-10 20:54:00,
2013-04-10 16:59:00,54.0,44.8,29.85,SSE,158,5.4,5.8,71,0.00,CLR,,0.13,WeatherDisplay:10.37,2013-04-10 20:59:00,
2013-04-10 17:04:00,53.2,44.1,29.84,SSW,202,4.0,5.8,71,0.00,CLR,,0.13,WeatherDisplay:10.37,2013-04-10 21:04:00,
2013-04-10 17:09:00,52.3,43.6,29.85,ESE,112,3.6,3.6,72,0.00,CLR,,0.13,WeatherDisplay:10.37,2013-04-10 21:09:00,
2013-04-10 17:14:00,51.6,42.9,29.86,SSW,202,2.2,2.3,72,0.00,CLR,,0.13,WeatherDisplay:10.37,2013-04-10 21:14:00,
2013-04-10 17:19:00,51.4,43.4,29.87,ESE,112,4.0,7.1,74,0.00,CLR,,0.13,WeatherDisplay:10.37,2013-04-10 21:19:00,
2013-04-10 17:24:00,50.9,42.9,29.87,SSW,202,0.9,3.5,74,0.00,CLR,,0.13,WeatherDisplay:10.37,2013-04-10 21:24:00,
2013-04-10 17:29:00,50.5,42.9,29.88,ENE,68,3.3,4.6,75,0.00,CLR,,0.13,WeatherDisplay:10.37,2013-04-10 21:29:00,
2013-04-10 17:34:00,50.5,42.9,29.87,SSE,158,5.2,5.2,75,0.00,CLR,,0.13,WeatherDisplay:10.37,2013-04-10 21:34:00,
2013-04-10 17:39:00,50.7,43.1,29.86,SE,135,2.0,4.6,75,0.00,CLR,,0.13,WeatherDisplay:10.37,2013-04-10 21:39:00,
2013-04-10 17:44:00,50.7,43.1,29.88,SSE,158,4.7,8.1,75,0.00,CLR,,0.13,WeatherDisplay:10.37,2013-04-10 21:44:00,
2013-04-10 17:49:00,50.2,42.9,29.88,SSW,202,2.4,4.6,76,0.00,CLR,,0.13,WeatherDisplay:10.37,2013-04-10 21:49:00,
2013-04-10 17:54:00,50.0,42.7,29.87,SE,135,6.0,6.9,76,0.00,CLR,,0.13,WeatherDisplay:10.37,2013-04-10 21:54:00,
2013-04-10 17:59:00,49.8,42.6,29.88,South,180,2.6,6.9,76,0.00,CLR,,0.13,WeatherDisplay:10.37,2013-04-10 21:59:00,
2013-04-10 18:04:00,49.5,42.5,29.88,SSW,202,0.9,1.1,77,0.00,CLR,,0.13,WeatherDisplay:10.37,2013-04-10 22:04:00,
2013-04-10 18:09:00,49.3,42.4,29.88,SSE,158,7.1,7.1,77,0.00,CLR,,0.13,WeatherDisplay:10.37,2013-04-10 22:09:00,
2013-04-10 18:14:00,48.9,42.4,29.89,SE,135,1.1,2.3,78,0.00,CLR,,0.13,WeatherDisplay:10.37,2013-04-10 22:14:00,
2013-04-10 18:19:00,48.7,42.2,29.88,ESE,112,3.3,5.8,78,0.00,CLR,,0.13,WeatherDisplay:10.37,2013-04-10 22:19:00,
2013-04-10 18:24:00,48.6,42.3,29.88,ESE,112,0.5,2.3,79,0.00,CLR,,0.13,WeatherDisplay:10.37,2013-04-10 22:24:00,
2013-04-10 18:29:00,48.4,42.5,29.88,ESE,112,3.3,3.5,80,0.00,CLR,,0.13,WeatherDisplay:10.37,2013-04-10 22:29:00,
2013-04-10 18:35:00,48.2,42.0,29.88,SSE,158,4.5,4.7,79,0.00,CLR,,0.13,WeatherDisplay:10.37,2013-04-10 22:35:00,
2013-04-10 18:40:00,48.2,42.3,29.88,SE,135,2.2,4.6,80,0.00,CLR,,0.13,WeatherDisplay:10.37,2013-04-10 22:40:00,
2013-04-10 18:45:00,48.2,42.0,29.87,South,180,1.1,2.3,79,0.00,CLR,,0.13,WeatherDisplay:10.37,2013-04-10 22:45:00,
2013-04-10 18:50:00,48.2,42.3,29.87,SSE,158,3.6,4.6,80,0.00,CLR,,0.13,WeatherDisplay:10.37,2013-04-10 22:50:00,
2013-04-10 18:55:00,48.2,42.3,29.87,WSW,248,0.7,4.6,80,0.00,CLR,,0.13,WeatherDisplay:10.37,2013-04-10 22:55:00,
2013-04-10 19:00:00,48.0,42.1,29.87,SE,135,1.1,5.8,80,0.00,CLR,,0.13,WeatherDisplay:10.37,2013-04-10 23:00:00,
2013-04-10 19:05:00,47.8,42.0,29.87,SSE,158,3.1,4.6,80,0.00,CLR,,0.13,WeatherDisplay:10.37,2013-04-10 23:05:00,
2013-04-10 19:10:00,47.5,41.9,29.87,SE,135,6.0,8.1,81,0.00,CLR,,0.13,WeatherDisplay:10.37,2013-04-10 23:10:00,
2013-04-10 19:15:00,47.1,41.6,29.85,SE,135,5.9,5.9,81,0.00,CLR,,0.13,WeatherDisplay:10.37,2013-04-10 23:15:00,
2013-04-10 19:20:00,46.9,41.4,29.84,SSE,158,6.9,6.9,81,0.00,CLR,,0.13,WeatherDisplay:10.37,2013-04-10 23:20:00,
2013-04-10 19:25:00,46.6,41.7,29.84,South,180,3.8,4.6,83,0.00,CLR,,0.13,WeatherDisplay:10.37,2013-04-10 23:25:00,
2013-04-10 19:30:00,46.4,41.5,29.86,SSE,158,4.0,6.9,83,0.00,CLR,,0.13,WeatherDisplay:10.37,2013-04-10 23:30:00,
2013-04-10 19:35:00,46.2,41.3,29.86,SSE,158,2.2,4.6,83,0.00,CLR,,0.13,WeatherDisplay:10.37,2013-04-10 23:35:00,
2013-04-10 19:40:00,46.2,41.7,29.85,SSE,158,2.9,6.9,84,0.00,CLR,,0.13,WeatherDisplay:10.37,2013-04-10 23:40:00,
2013-04-10 19:45:00,46.0,41.2,29.85,SE,135,5.2,5.8,83,0.00,CLR,,0.13,WeatherDisplay:10.37,2013-04-10 23:45:00,
2013-04-10 19:51:00,46.0,40.9,29.85,ESE,112,4.3,5.8,82,0.00,CLR,,0.13,WeatherDisplay:10.37,2013-04-10 23:51:00,
2013-04-10 19:56:00,46.0,41.2,29.85,SE,135,1.1,2.3,83,0.00,CLR,,0.13,WeatherDisplay:10.37,2013-04-10 23:56:00,
2013-04-10 20:01:00,46.0,40.9,29.84,SE,135,1.8,2.3,82,0.00,CLR,,0.13,WeatherDisplay:10.37,2013-04-11 00:01:00,
2013-04-10 20:06:00,46.2,41.3,29.83,ESE,112,2.2,2.3,83,0.00,CLR,,0.13,WeatherDisplay:10.37,2013-04-11 00:06:00,
2013-04-10 20:11:00,46.2,41.3,29.83,SSE,158,4.9,5.8,83,0.00,CLR,,0.13,WeatherDisplay:10.37,2013-04-11 00:11:00,
2013-04-10 20:16:00,46.2,41.3,29.82,SSW,202,1.1,3.5,83,0.00,CLR,,0.13,WeatherDisplay:10.37,2013-04-11 00:16:00,
2013-04-10 20:21:00,46.2,41.3,29.82,South,180,3.3,6.9,83,0.00,CLR,,0.13,WeatherDisplay:10.37,2013-04-11 00:21:00,
2013-04-10 20:26:00,46.4,41.5,29.83,ESE,112,3.1,4.6,83,0.00,CLR,,0.13,WeatherDisplay:10.37,2013-04-11 00:26:00,
2013-04-10 20:31:00,46.4,41.2,29.84,SSE,158,3.3,4.6,82,0.00,CLR,,0.13,WeatherDisplay:10.37,2013-04-11 00:31:00,
2013-04-10 20:36:00,46.4,41.2,29.85,SSW,202,2.4,2.4,82,0.00,CLR,,0.13,WeatherDisplay:10.37,2013-04-11 00:36:00,
2013-04-10 20:41:00,46.4,41.2,29.85,SSW,202,2.4,6.9,82,0.00,CLR,,0.13,WeatherDisplay:10.37,2013-04-11 00:41:00,
2013-04-10 20:46:00,46.4,41.2,29.85,SSW,202,1.8,6.9,82,0.00,CLR,,0.13,WeatherDisplay:10.37,2013-04-11 00:46:00,
2013-04-10 20:51:00,46.4,41.2,29.85,South,180,1.8,4.6,82,0.00,CLR,,0.13,WeatherDisplay:10.37,2013-04-11 00:51:00,
2013-04-10 20:56:00,46.4,40.9,29.84,SE,135,3.3,3.5,81,0.00,CLR,,0.13,WeatherDisplay:10.37,2013-04-11 00:56:00,
2013-04-10 21:01:00,46.4,41.2,29.83,SE,135,1.8,3.5,82,0.00,CLR,,0.13,WeatherDisplay:10.37,2013-04-11 01:01:00,
2013-04-10 21:06:00,46.4,41.2,29.83,SSE,158,0.5,5.8,82,0.00,CLR,,0.13,WeatherDisplay:10.37,2013-04-11 01:06:00,
2013-04-10 21:11:00,46.4,41.2,29.82,South,180,2.2,3.5,82,0.00,CLR,,0.13,WeatherDisplay:10.37,2013-04-11 01:11:00,
2013-04-10 21:16:00,46.4,41.2,29.82,SSE,158,1.8,4.6,82,0.00,CLR,,0.13,WeatherDisplay:10.37,2013-04-11 01:16:00,
2013-04-10 21:21:00,46.4,41.2,29.84,South,180,2.9,3.5,82,0.00,CLR,,0.13,WeatherDisplay:10.37,2013-04-11 01:21:00,
2013-04-10 21:26:00,46.6,41.4,29.87,NW,315,0.2,0.2,82,0.00,CLR,,0.13,WeatherDisplay:10.37,2013-04-11 01:26:00,
2013-04-10 21:31:00,46.8,41.6,29.92,WNW,292,0.5,2.3,82,0.01,RA,,0.14,WeatherDisplay:10.37,2013-04-11 01:31:00,
2013-04-10 21:36:00,46.6,42.0,29.95,West,270,0.5,2.3,84,0.07,RA,,0.20,WeatherDisplay:10.37,2013-04-11 01:36:00,
2013-04-10 21:41:00,46.4,41.8,29.93,SSE,158,1.8,2.3,84,0.13,RA,,0.28,WeatherDisplay:10.37,2013-04-11 01:41:00,
2013-04-10 21:46:00,46.2,41.7,29.90,SE,135,2.9,2.9,84,0.18,RA,,0.31,WeatherDisplay:10.37,2013-04-11 01:46:00,
2013-04-10 21:51:00,46.2,42.0,29.88,SSE,158,1.8,2.3,85,0.19,RA,,0.33,WeatherDisplay:10.37,2013-04-11 01:51:00,
2013-04-10 21:56:00,46.0,41.8,29.86,SE,135,4.7,4.7,85,0.20,RA,,0.33,WeatherDisplay:10.37,2013-04-11 01:56:00,
2013-04-10 22:01:00,46.0,42.4,29.83,SE,135,3.1,4.6,87,0.22,RA,,0.36,WeatherDisplay:10.37,2013-04-11 02:01:00,
2013-04-10 22:06:00,46.0,42.4,29.82,SSE,158,2.0,5.8,87,0.23,RA,,0.37,WeatherDisplay:10.37,2013-04-11 02:06:00,
2013-04-10 22:11:00,45.9,42.5,29.84,SE,135,1.8,2.3,88,0.23,RA,,0.37,WeatherDisplay:10.37,2013-04-11 02:11:00,
2013-04-10 22:16:00,45.7,42.0,29.84,South,180,1.6,4.6,87,0.23,,,0.37,WeatherDisplay:10.37,2013-04-11 02:16:00,
2013-04-10 22:21:00,45.9,42.2,29.84,SSW,202,0.5,1.1,87,0.23,CLR,,0.37,WeatherDisplay:10.37,2013-04-11 02:21:00,
2013-04-10 22:26:00,45.9,42.2,29.83,SSE,158,3.3,3.3,87,0.23,CLR,,0.37,WeatherDisplay:10.37,2013-04-11 02:26:00,
2013-04-10 22:31:00,45.9,42.2,29.82,ESE,112,4.5,4.5,87,0.22,CLR,,0.37,WeatherDisplay:10.37,2013-04-11 02:31:00,
2013-04-10 22:36:00,45.9,42.2,29.82,SE,135,1.1,3.5,87,0.16,CLR,,0.37,WeatherDisplay:10.37,2013-04-11 02:36:00,
2013-04-10 22:41:00,45.7,42.0,29.82,SE,135,2.4,2.4,87,0.10,CLR,,0.37,WeatherDisplay:10.37,2013-04-11 02:41:00,
2013-04-10 22:46:00,45.7,42.0,29.82,SSE,158,2.6,4.6,87,0.05,CLR,,0.37,WeatherDisplay:10.37,2013-04-11 02:46:00,
2013-04-10 22:51:00,45.7,42.0,29.81,SSE,158,1.4,2.3,87,0.04,CLR,,0.37,WeatherDisplay:10.37,2013-04-11 02:51:00,
2013-04-10 22:56:00,45.9,42.2,29.81,SE,135,0.5,3.5,87,0.03,CLR,,0.37,WeatherDisplay:10.37,2013-04-11 02:56:00,
2013-04-10 23:01:00,45.9,42.2,29.81,SE,135,0.5,2.3,87,0.01,CLR,,0.37,WeatherDisplay:10.37,2013-04-11 03:01:00,
2013-04-10 23:06:00,45.9,42.2,29.80,SE,135,2.6,2.6,87,0.00,CLR,,0.37,WeatherDisplay:10.37,2013-04-11 03:06:00,
2013-04-10 23:11:00,45.7,42.0,29.80,SSW,202,0.5,3.5,87,0.00,CLR,,0.37,WeatherDisplay:10.37,2013-04-11 03:11:00,
2013-04-10 23:16:00,45.7,42.0,29.81,East,90,0.5,1.1,87,0.00,CLR,,0.37,WeatherDisplay:10.37,2013-04-11 03:16:00,
2013-04-10 23:21:00,45.7,42.0,29.82,ESE,112,1.1,1.1,87,0.00,CLR,,0.37,WeatherDisplay:10.37,2013-04-11 03:21:00,
2013-04-10 23:26:00,45.7,42.0,29.82,ESE,112,2.0,2.0,87,0.00,CLR,,0.37,WeatherDisplay:10.37,2013-04-11 03:26:00,
2013-04-10 23:31:00,45.7,42.0,29.82,NW,315,0.0,0.0,87,0.00,CLR,,0.37,WeatherDisplay:10.37,2013-04-11 03:31:00,
2013-04-10 23:36:00,45.7,42.0,29.85,NW,315,0.2,0.2,87,0.00,CLR,,0.37,WeatherDisplay:10.37,2013-04-11 03:36:00,
2013-04-10 23:41:00,45.9,42.2,29.83,ENE,68,0.9,1.1,87,0.00,CLR,,0.37,WeatherDisplay:10.37,2013-04-11 03:41:00,
2013-04-10 23:46:00,45.9,42.2,29.83,ENE,68,0.0,0.0,87,0.01,RA,,0.38,WeatherDisplay:10.37,2013-04-11 03:46:00,
2013-04-10 23:51:00,45.9,42.2,29.83,SE,135,0.0,0.0,87,0.01,RA,,0.38,WeatherDisplay:10.37,2013-04-11 03:51:00,
2013-04-10 23:56:00,46.0,42.4,29.82,ESE,112,1.4,1.4,87,0.01,,,0.38,WeatherDisplay:10.37,2013-04-11 03:56:00,